• In Uzbekistan
  • List of Countries
  • For 7 days
  • Water Temperature
  • Satellite Maps
  • Weather Map
  • Weather Widgets
  • user-avatar
    Login

    Hourly Weather Yulara

    Today, 30 April, Sunday

    Time Temperature Precipitation Wind Pressure Humidity
    00:00 +17°C° 0 mm 4 mps 721 mmHg 40%
    01:00 +17°C° 0 mm 4 mps 721 mmHg 42%
    02:00 +15°C° 0 mm 4 mps 721 mmHg 43%
    03:00 +16°C° 0 mm 3 mps 720 mmHg 44%
    04:00 +16°C° 0 mm 3 mps 720 mmHg 45%
    05:00 +16°C° 0 mm 3 mps 720 mmHg 46%
    06:00 +14°C° 0 mm 3 mps 720 mmHg 47%
    07:00 +16°C° 0 mm 3 mps 721 mmHg 44%
    08:00 +17°C° 0 mm 4 mps 721 mmHg 42%
    09:00 +18°C° 0 mm 4 mps 721 mmHg 39%
    10:00 +20°C° 0 mm 4 mps 721 mmHg 36%
    11:00 +21°C° 0 mm 3 mps 721 mmHg 33%
    12:00 +22°C° 0 mm 3 mps 720 mmHg 30%
    13:00 +23°C° 0 mm 2 mps 720 mmHg 28%
    14:00 +24°C° 0 mm 2 mps 720 mmHg 27%
    15:00 +24°C° 0 mm 1 mps 719 mmHg 25%
    16:00 +24°C° 0 mm 1 mps 719 mmHg 27%
    17:00 +23°C° 0 mm 1 mps 719 mmHg 28%
    18:00 +23°C° 0 mm 1 mps 719 mmHg 30%
    19:00 +22°C° 0 mm 1 mps 719 mmHg 31%
    20:00 +20°C° 0 mm 2 mps 720 mmHg 32%
    21:00 +20°C° 0 mm 2 mps 720 mmHg 33%
    22:00 +19°C° 0 mm 2 mps 720 mmHg 35%
    23:00 +19°C° 0 mm 2 mps 720 mmHg 36%

    Tomorrow, 1 May, Monday

    Time Temperature Precipitation Wind Pressure Humidity
    00:00 +18°C° 0 mm 2 mps 720 mmHg 38%
    01:00 +18°C° 0 mm 2 mps 720 mmHg 40%
    02:00 +17°C° 0 mm 2 mps 719 mmHg 41%
    03:00 +18°C° 0 mm 1 mps 719 mmHg 43%
    04:00 +16°C° 0 mm 1 mps 719 mmHg 44%
    05:00 +16°C° 0 mm 1 mps 720 mmHg 45%
    06:00 +15°C° 0 mm 1 mps 720 mmHg 46%
    07:00 +18°C° 0 mm 1 mps 720 mmHg 43%
    08:00 +18°C° 0 mm 2 mps 721 mmHg 39%
    09:00 +19°C° 0 mm 2 mps 721 mmHg 35%
    10:00 +21°C° 0 mm 2 mps 721 mmHg 32%
    11:00 +22°C° 0 mm 3 mps 721 mmHg 29%
    12:00 +24°C° 0 mm 3 mps 721 mmHg 26%
    13:00 +25°C° 0 mm 3 mps 721 mmHg 25%
    14:00 +26°C° 0 mm 4 mps 720 mmHg 24%
    15:00 +26°C° 0 mm 4 mps 720 mmHg 22%
    16:00 +25°C° 0 mm 4 mps 720 mmHg 24%
    17:00 +25°C° 0 mm 3 mps 720 mmHg 25%
    18:00 +24°C° 0 mm 3 mps 720 mmHg 27%
    19:00 +22°C° 0 mm 3 mps 721 mmHg 28%
    20:00 +21°C° 0 mm 3 mps 721 mmHg 30%
    21:00 +21°C° 0 mm 3 mps 721 mmHg 32%
    22:00 +20°C° 0 mm 4 mps 722 mmHg 34%
    23:00 +19°C° 0 mm 4 mps 722 mmHg 35%

    Day after tomorrow, 2 May, Tuesday

    Time Temperature Precipitation Wind Pressure Humidity
    00:00 +19°C° 0 mm 4 mps 722 mmHg 37%
    01:00 +18°C° 0 mm 4 mps 721 mmHg 39%
    02:00 +18°C° 0 mm 4 mps 721 mmHg 41%
    03:00 +16°C° 0 mm 5 mps 721 mmHg 43%
    04:00 +16°C° 0 mm 5 mps 721 mmHg 47%
    05:00 +15°C° 0 mm 5 mps 722 mmHg 52%
    06:00 +15°C° 0 mm 5 mps 722 mmHg 56%
    07:00 +15°C° 0 mm 6 mps 722 mmHg 58%
    08:00 +16°C° 0 mm 7 mps 723 mmHg 60%
    09:00 +17°C° 0 mm 7 mps 723 mmHg 62%
    10:00 +18°C° 0 mm 7 mps 723 mmHg 56%
    11:00 +20°C° 0 mm 7 mps 723 mmHg 49%
    12:00 +22°C° 0 mm 7 mps 723 mmHg 43%
    13:00 +22°C° 0 mm 6 mps 723 mmHg 41%
    14:00 +22°C° 0 mm 6 mps 722 mmHg 39%
    15:00 +23°C° 0 mm 6 mps 721 mmHg 37%
    16:00 +22°C° 0 mm 6 mps 722 mmHg 40%
    17:00 +21°C° 0 mm 6 mps 722 mmHg 42%
    18:00 +20°C° 0 mm 5 mps 722 mmHg 45%
    19:00 +19°C° 0 mm 5 mps 722 mmHg 47%
    20:00 +19°C° 0 mm 5 mps 723 mmHg 49%
    21:00 +17°C° 0 mm 5 mps 724 mmHg 51%
    22:00 +16°C° 0 mm 6 mps 724 mmHg 52%
    23:00 +16°C° 0 mm 6 mps 724 mmHg 52%

    3 May, Wednesday

    Time Temperature Precipitation Wind Pressure Humidity
    00:00 +15°C° 0 mm 6 mps 724 mmHg 52%
    01:00 +15°C° 0 mm 6 mps 724 mmHg 53%
    02:00 +14°C° 0 mm 6 mps 723 mmHg 54%
    03:00 +13°C° 0 mm 6 mps 723 mmHg 54%
    04:00 +13°C° 0 mm 6 mps 723 mmHg 56%
    05:00 +11°C° 0 mm 6 mps 723 mmHg 58%
    06:00 +12°C° 0 mm 5 mps 724 mmHg 60%
    07:00 +13°C° 0 mm 6 mps 724 mmHg 56%
    08:00 +13°C° 0 mm 6 mps 725 mmHg 53%
    09:00 +14°C° 0 mm 7 mps 725 mmHg 50%
    10:00 +16°C° 0 mm 7 mps 725 mmHg 45%
    11:00 +17°C° 0 mm 6 mps 724 mmHg 40%
    12:00 +19°C° 0 mm 6 mps 724 mmHg 35%
    13:00 +20°C° 0 mm 6 mps 723 mmHg 33%
    14:00 +21°C° 0 mm 6 mps 723 mmHg 30%
    15:00 +21°C° 0 mm 5 mps 722 mmHg 27%
    16:00 +21°C° 0 mm 5 mps 722 mmHg 29%
    17:00 +20°C° 0 mm 5 mps 723 mmHg 31%
    18:00 +19°C° 0 mm 4 mps 723 mmHg 33%
    19:00 +18°C° 0 mm 4 mps 723 mmHg 35%
    20:00 +18°C° 0 mm 4 mps 724 mmHg 38%
    21:00 +17°C° 0 mm 4 mps 724 mmHg 40%
    22:00 +15°C° 0 mm 4 mps 724 mmHg 43%
    23:00 +15°C° 0 mm 5 mps 724 mmHg 45%

    4 May, Thursday

    Time Temperature Precipitation Wind Pressure Humidity
    00:00 +15°C° 0 mm 5 mps 724 mmHg 47%
    01:00 +14°C° 0 mm 5 mps 724 mmHg 49%
    02:00 +14°C° 0 mm 5 mps 724 mmHg 51%
    03:00 +13°C° 0 mm 5 mps 723 mmHg 53%
    04:00 +13°C° 0 mm 5 mps 724 mmHg 54%
    05:00 +12°C° 0 mm 4 mps 724 mmHg 55%
    06:00 +12°C° 0 mm 4 mps 724 mmHg 56%
    07:00 +13°C° 0 mm 5 mps 725 mmHg 51%
    08:00 +14°C° 0 mm 5 mps 725 mmHg 45%
    09:00 +15°C° 0 mm 6 mps 725 mmHg 40%
    10:00 +16°C° 0 mm 6 mps 725 mmHg 36%
    11:00 +19°C° 0 mm 6 mps 725 mmHg 32%
    12:00 +20°C° 0 mm 5 mps 724 mmHg 28%
    13:00 +21°C° 0 mm 5 mps 724 mmHg 25%
    14:00 +21°C° 0 mm 5 mps 723 mmHg 23%
    15:00 +22°C° 0 mm 5 mps 723 mmHg 21%
    16:00 +21°C° 0 mm 4 mps 723 mmHg 22%
    17:00 +20°C° 0 mm 4 mps 723 mmHg 23%
    18:00 +19°C° 0 mm 3 mps 723 mmHg 24%
    19:00 +19°C° 0 mm 4 mps 724 mmHg 25%
    20:00 +18°C° 0 mm 4 mps 724 mmHg 26%
    21:00 +17°C° 0 mm 4 mps 724 mmHg 27%
    22:00 +17°C° 0 mm 4 mps 724 mmHg 29%
    23:00 +15°C° 0 mm 4 mps 724 mmHg 31%

    5 May, Friday

    Time Temperature Precipitation Wind Pressure Humidity
    00:00 +14°C° 0 mm 4 mps 724 mmHg 32%
    01:00 +14°C° 0 mm 4 mps 724 mmHg 34%
    02:00 +13°C° 0 mm 4 mps 724 mmHg 36%
    03:00 +13°C° 0 mm 4 mps 724 mmHg 38%
    04:00 +12°C° 0 mm 4 mps 724 mmHg 40%
    05:00 +12°C° 0 mm 3 mps 724 mmHg 42%
    06:00 +12°C° 0 mm 3 mps 724 mmHg 44%
    07:00 +13°C° 0 mm 4 mps 724 mmHg 41%
    08:00 +14°C° 0 mm 4 mps 725 mmHg 39%
    09:00 +15°C° 0 mm 5 mps 725 mmHg 37%
    10:00 +18°C° 0 mm 4 mps 725 mmHg 34%
    11:00 +20°C° 0 mm 4 mps 724 mmHg 30%
    12:00 +21°C° 0 mm 4 mps 724 mmHg 27%
    13:00 +22°C° 0 mm 3 mps 724 mmHg 25%
    14:00 +24°C° 0 mm 3 mps 723 mmHg 23%
    15:00 +24°C° 0 mm 2 mps 723 mmHg 20%
    16:00 +22°C° 0 mm 3 mps 723 mmHg 22%
    17:00 +21°C° 0 mm 3 mps 723 mmHg 23%
    18:00 +21°C° 0 mm 3 mps 723 mmHg 24%
    19:00 +20°C° 0 mm 3 mps 724 mmHg 26%
    20:00 +19°C° 0 mm 3 mps 724 mmHg 27%
    21:00 +18°C° 0 mm 4 mps 724 mmHg 28%
    22:00 +18°C° 0 mm 4 mps 724 mmHg 29%
    23:00 +17°C° 0 mm 4 mps 724 mmHg 30%
    Show more